TimeCST,TemperatureF,Dew PointF,Humidity,Sea Level PressureIn,VisibilityMPH,Wind Direction,Wind SpeedMPH,Gust SpeedMPH,PrecipitationIn,Events,Conditions,WindDirDegrees,DateUTC
12:53 AM,15.1,8.1,74,30.22,10.0,Calm,Calm,-,N/A,,Clear,0,2013-03-03 06:53:00
1:53 AM,10.9,7.0,84,30.22,10.0,Calm,Calm,-,N/A,,Clear,0,2013-03-03 07:53:00
2:53 AM,10.9,7.0,84,30.21,10.0,Calm,Calm,-,N/A,,Clear,0,2013-03-03 08:53:00
3:53 AM,10.9,6.1,81,30.21,10.0,Calm,Calm,-,N/A,,Clear,0,2013-03-03 09:53:00
4:53 AM,10.0,6.1,84,30.22,10.0,Calm,Calm,-,N/A,,Clear,0,2013-03-03 10:53:00
5:53 AM,9.0,6.1,88,30.22,10.0,Calm,Calm,-,N/A,,Clear,0,2013-03-03 11:53:00
6:53 AM,6.1,1.9,83,30.22,10.0,Calm,Calm,-,N/A,,Clear,0,2013-03-03 12:53:00
7:53 AM,10.0,7.0,87,30.23,10.0,Calm,Calm,-,N/A,,Clear,0,2013-03-03 13:53:00
8:53 AM,14.0,10.0,84,30.23,10.0,Calm,Calm,-,N/A,,Clear,0,2013-03-03 14:53:00
9:53 AM,18.0,10.0,71,30.21,10.0,NW,3.5,-,N/A,,Clear,310,2013-03-03 15:53:00
10:53 AM,21.9,12.0,66,30.19,10.0,NW,4.6,-,N/A,,Clear,310,2013-03-03 16:53:00
11:53 AM,26.1,14.0,60,30.17,10.0,NW,4.6,-,N/A,,Clear,320,2013-03-03 17:53:00
12:53 PM,28.9,12.9,51,30.14,10.0,NW,5.8,-,N/A,,Clear,310,2013-03-03 18:53:00
1:53 PM,32.0,9.0,38,30.12,10.0,WNW,4.6,-,N/A,,Clear,290,2013-03-03 19:53:00
2:53 PM,34.0,7.0,32,30.11,10.0,Calm,Calm,-,N/A,,Clear,0,2013-03-03 20:53:00
3:53 PM,34.0,9.0,35,30.10,10.0,Calm,Calm,-,N/A,,Clear,0,2013-03-03 21:53:00
4:53 PM,32.0,7.0,35,30.09,10.0,Calm,Calm,-,N/A,,Clear,0,2013-03-03 22:53:00
5:53 PM,30.9,3.0,31,30.09,10.0,East,4.6,-,N/A,,Clear,90,2013-03-03 23:53:00
6:53 PM,30.0,3.0,32,30.10,10.0,East,3.5,-,N/A,,Clear,100,2013-03-04 00:53:00
7:53 PM,28.0,3.9,36,30.11,10.0,East,6.9,-,N/A,,Clear,90,2013-03-04 01:53:00
8:53 PM,26.1,3.9,39,30.11,10.0,East,6.9,-,N/A,,Clear,100,2013-03-04 02:53:00
9:53 PM,25.0,5.0,43,30.11,10.0,ESE,5.8,-,N/A,,Clear,110,2013-03-04 03:53:00
10:53 PM,26.1,3.9,39,30.09,10.0,East,5.8,-,N/A,,Clear,100,2013-03-04 04:53:00
11:53 PM,24.1,6.1,46,30.10,10.0,ESE,4.6,-,N/A,,Clear,120,2013-03-04 05:53:00